User: anonymous
Location: Unspecified
(0.0000°N, 0.0000°E)
Time: 05:37:58
(UTC+02:00)
Language:

Cosmos 773 Rocket - Orbit

View from above orbital plane
View from above orbital plane
View from above satellite
View from above satellite

Ground track
Ground track

The orbit data is extracted from the following two-line orbital elements,

1 08344U 75094B   14204.79107525  .00000083  00000-0  35505-4 0  5181
2 08344 074.0578 277.3690 0020882 082.8684 056.1019 14.38765976 33310
Epoch (UTC): 23 July 2014 18:59:08
Eccentricity: 0.0020882
inclination: 74.0578°
perigee height: 747 km
apogee height: 777 km
right ascension of ascending node: 277.3690°
argument of perigee: 82.8684°
revolutions per day: 14.38765976
mean anomaly at epoch: 56.1019°
orbit number at epoch: 3331

The dashed part of the orbit path shows where the satellite is in the earth's shadow,  

DLR